STARLINK-1067, 44771

Orbit data source: Space-Track

STARLINK-1067, 44771 is a payload satellite owned by SpaceX/Seattle (US) in LEO that was launched on Mon, 11 Nov 2019 UTC via an FALCON 9 launch vehicle from the Air Force Eastern Test Range (AFETR). Payload-class satellites include a variety of spacecraft equipped with specific instruments for various scientific and technological missions. These include communications satellites like Starlink; space stations such as the ISS; scientific satellites like the Hubble; Earth observation satellites from companies like Planet Labs, Umbra, and HawkEye 360; GPS; miniature CubeSats for education and research; and military/defense satellites.

Loading next visibility...
Identifier
44771, 2019-074BL
Orbit
LEO
Country
Flag of USUS
Related business
Manufacturer
SpaceX/Seattle
Mission
Operational Commercial Communications
Bus & Motor
STARLINK, Unknown motor
Mass
260 kg wet, ~248 kg dry
Launch date (UTC)
2019-11-11 (6 years ago)
Launch vehicle
FALCON 9
Launch site
Air Force Eastern Test Range (AFETR)
Object type
Payload
Rocket body
Debris
Shape & HBR
Box + 1 Pan, 10.1 m
Radar Cross Section
13.562 m², Large (>1 m²)

Expand to show TLE details & history
Last TLE update: 7 hours ago

TLE from 7 hours ago
0 STARLINK-1067
1 44771U 19074BL  25308.61521975  .00001449  00000-0  11613-3 0  9991
2 44771  53.0535  68.0992 0001390  86.0882 274.0266 15.06402504329340
Epoch: 2025-11-04T14:45Z
TLE epoch observation values (Epoch: 2025-11-04T14:45:54.986Z)
Latitude
-0.00001°
Longitude
162.52039°
Altitude
548.015 km
Speed
7.589 km/s
True Right ascension
04h 32m 23s
True Declination
0° 00' 00"
Sunlit
Object was in full shadow at epoch
Visualization orbit readout
Latitude
Unknown
Longitude
Unknown
Altitude
Unknown
Speed
Unknown
Apparent Right ascension
Unknown
Apparent Declination
Unknown
Sunlit
N/A
Visualization observer readout
Local Sidereal Time
18:10:37
Azimuth
Unknown
Elevation
Unknown
Doppler factor
Unknown
Orbital elements
Apogee altitude
548.437 km
Perigee altitude
546.512 km
Semi-major axis
6,925.612 km
Eccentricity
0.00014
Inclination
53.0535°
RAAN
68.0992°
Arg. of periapsis
86.0882°
True anomaly
274.01071°
Mean anomaly
274.0266°
Eccentric anomaly
274.01866°
Mean motion
3.76579 °/min
Orbital period
95.6 mins
BSTAR
0.00011613
Loading maneuver chart data...
Computing Atmospheric mass density...

Documentation

Showing up to 5 results
|